Regional Weather Roundup
Issued by NWS

Home | Current Version | Previous Version | Text Only | Print | Product List | Glossary On
Versions: 1 2 3 4 5 6 7 8 9 10 11 12 13 14 15 16 17 18 19 20 21 22 23 24 25 26 27 28 29 30 31 32 33 34 35 36 37 38 39 40 41 42 43 44 45 46 47 48 49 50
000
ASCA44 KEWX 010320
RWRMX

LATIN AMERICA AND CARIBBEAN REGIONAL WEATHER ROUNDUP
NATIONAL WEATHER SERVICE AUSTIN/SAN ANTONIO TX
1000 PM CDT FRI JUL 31 2015

NOTE: "FAIR" INDICATED FEW OR NO CLOUDS BELOW 12,000 FEET WITH NO
SIGNIFICANT WEATHER AND/OR OBSTRUCTIONS TO VISIBILITY.

BAJA CALIFORNIA

CITY           SKY/WX    TMP DP  RH WIND       PRES   REMARKS
LORETO           N/A    N/A N/A N/A MISG        N/A
LA PAZ         CLEAR     90  68  48 S9        29.84R HX  93
MEXICALI       MOCLDY   104  32   8 NW7       29.79R HX  97
S.J. DEL CABO    N/A    N/A N/A N/A MISG        N/A
TIJUANA        MOCLDY    70  64  83 W9        29.99R

NORTHWESTERN MEXICO

CITY           SKY/WX    TMP DP  RH WIND       PRES   REMARKS
CULIACAN       LGT RAIN  86  72  62 SE8       29.87R HX  92
DURANGO        PTCLDY    72  52  49 N6        30.24R
GUAYMAS          N/A    N/A N/A N/A MISG        N/A
HERMOSILLO     PTCLDY    95  64  36 CALM      29.85S HX  97
CD. JUAREZ     PTCLDY    91  54  27 SE5       30.04R
LOS MOCHIS     PTCLDY    90  73  58 W12       29.79R HX  98
OBREGON        PTCLDY    95  63  34 W7        29.75R HX  96

NORTHEASTERN MEXICO

CITY           SKY/WX    TMP DP  RH WIND       PRES   REMARKS
CHIHUAHUA      MOCLDY    84  46  26 E8        30.12R
MATAMOROS      CLOUDY    82  79  89 CALM      29.98R HX  93
MONCLOVA         N/A    N/A N/A N/A MISG        N/A
MONTERREY      CLEAR     82  59  44 S7        29.99R
NUEVO LAREDO     N/A    N/A N/A N/A MISG        N/A
PIEDRAS NEGRAS   N/A    N/A N/A N/A MISG        N/A
REYNOSA        MOCLDY    82  68  61 E6        29.96R
SALTILLO       CLEAR     75  61  60 N14       30.20R
TORREON        MOCLDY    91  52  25 NE7       30.05R
CD. VICTORIA   PTCLDY    84  72  65 NE8       29.97R

WESTERN MEXICO

CITY           SKY/WX    TMP DP  RH WIND       PRES   REMARKS
AGUASCALIENTES CLEAR     68  48  49 NE10      30.24R
DEL BAJIO      PTCLDY    72  48  43 NE8       30.27R
GUADALAJARA    MOCLDY    70  57  64 CALM      30.14R
MANZANILLO       N/A    N/A N/A N/A MISG        N/A
MAZATLAN       LGT RAIN  73  70  88 N9        29.82R
P. VALLARTA    MOCLDY    86  81  84 SW5       29.85R HX 102
ZACATECAS        N/A    N/A N/A N/A MISG        N/A

CENTRAL MEXICO

CITY           SKY/WX    TMP DP  RH WIND       PRES   REMARKS
MEXICO CITY    CLOUDY    64  45  48 N8        30.35R
PUEBLA         CLOUDY    61  52  72 N7        30.36R
QUERETARO      MOCLDY    66  52  59 E10       30.32R
S. LUIS POTOSI PTCLDY    70  48  46 E12G23    30.27R
TAMPICO        PTCLDY    82  75  78 SE9       29.95R
TOLUCA         MOCLDY    57  50  77 NE12      30.41R

SOUTHERN MEXICO

CITY           SKY/WX    TMP DP  RH WIND       PRES   REMARKS
ACAPULCO       MOCLDY    82  75  78 CALM      29.92R
OAXACA         CLOUDY    66  59  77 CALM      30.25R
VERACRUZ       PTCLDY    82  75  78 E3        29.99R
ZIHUATANEJO      N/A    N/A N/A N/A MISG        N/A

YUCATAN PENINSULA

CITY           SKY/WX    TMP DP  RH WIND       PRES   REMARKS
CAMPECHE       CLEAR     84  75  74 N13       29.94R HX  92
CANCUN         MOCLDY    82  77  83 E5        30.01R HX  91
CHETUMAL       PTCLDY    84  75  74 SE6       30.00R HX  92
CD. DEL CARMEN PTCLDY    84  77  79 N12       29.95R HX  94
COZUMEL        PTCLDY    77  75  94 CALM      30.02R
MERIDA         CLEAR     82  73  74 N7        29.98R
MINATITLAN     PTCLDY    82  68  61 N12       29.92R
TAPACHULA      MOCLDY    82  75  78 CALM      29.90R
VILLAHERMOSA   PTCLDY    81  75  83 CALM      29.97R

CENTRAL AMERICA

CITY           SKY/WX    TMP DP  RH WIND       PRES   REMARKS
MANAGUA        PTCLDY    81  70  69 E12       29.86S

CARIBBEAN

CITY           SKY/WX    TMP DP  RH WIND       PRES   REMARKS
ARUBA          PTCLDY    82  77  83 E16       29.92R HX  91
CURACAO        PTCLDY    82  75  78 E10       29.94R
KINGSTON       PTCLDY    84  75  74 SE15      29.97R HX  92
NASSAU         MOCLDY    84  79  84 S5        30.09R HX  96
SAN JUAN       PTCLDY    82  75  78 E10       30.07R
SANTO DOMINGO  PTCLDY    81  75  83 NE5       30.03R
ST. CROIX      PTCLDY    81  73  78 E16       30.06R
ST. MAARTEN    PTCLDY    82  73  74 E10       30.06S
ST. THOMAS     PTCLDY    84  72  65 E12       30.06R

$$




USA.gov is the U.S. government's official web portal to all federal, state and local government web resources and services.